| time (UTC) | temp F | wind direction | speed knots | gust knots | rain 1hr in | rain 24hr in | rain mn in | humidity % | barometer mb |
| 20260507201503 | 48 | 229 | 5.2 | 8.7 | 0.00 | 0.81 | 0.81 | 97 | 1004.0 |
| 20260507200004 | 47 | 225 | 6.1 | 8.7 | 0.00 | 0.81 | 0.81 | 97 | 1004.0 |
| 20260507194510 | 48 | 225 | 6.1 | 9.6 | 0.00 | 0.81 | 0.81 | 97 | 1004.1 |
| 20260507193012 | 47 | 234 | 5.2 | 8.7 | 0.00 | 0.81 | 0.81 | 98 | 1004.3 |
| 20260507191528 | 47 | 231 | 6.1 | 7.8 | 0.00 | 0.81 | 0.81 | 99 | 1004.5 |
| 20260507190023 | 46 | 241 | 6.1 | 8.7 | 0.00 | 0.81 | 0.81 | 98 | 1004.4 |
| 20260507184512 | 47 | 236 | 4.3 | 7.8 | 0.00 | 0.81 | 0.81 | 99 | 1004.2 |
| 20260507183011 | 47 | 244 | 3.5 | 7.0 | 0.00 | 0.81 | 0.81 | 100 | 1004.1 |
| 20260507181516 | 46 | 237 | 4.3 | 7.0 | 0.00 | 0.81 | 0.81 | 100 | 1004.3 |
| 20260507180019 | 47 | 242 | 3.5 | 7.0 | 0.00 | 0.81 | 0.81 | 100 | 1004.2 |
| 20260507174523 | 47 | 288 | 2.6 | 7.0 | 0.00 | 0.81 | 0.81 | 100 | 1004.0 |
| 20260507173006 | 46 | 277 | 1.7 | 7.8 | 0.00 | 0.81 | 0.81 | 100 | 1004.0 |
| 20260507171513 | 48 | 275 | 3.5 | 7.8 | 0.00 | 0.81 | 0.81 | 100 | 1004.3 |
| 20260507170017 | 48 | 293 | 3.5 | 8.7 | 0.00 | 0.81 | 0.81 | 100 | 1004.2 |
| 20260507164522 | 46 | 303 | 2.6 | 7.0 | 0.00 | 0.81 | 0.81 | 100 | 1004.3 |
| 20260507163025 | 46 | 317 | 5.2 | 8.7 | 0.01 | 0.81 | 0.81 | 100 | 1004.6 |
| 20260507161509 | 46 | 309 | 6.1 | 8.7 | 0.02 | 0.81 | 0.81 | 100 | 1004.6 |
| 20260507160012 | 45 | 291 | 3.5 | 7.0 | 0.03 | 0.81 | 0.81 | 100 | 1005.0 |
| 20260507154519 | 44 | 263 | 1.7 | 8.7 | 0.08 | 0.81 | 0.81 | 100 | 1005.3 |
| 20260507153028 | 45 | 220 | 3.5 | 7.0 | 0.10 | 0.80 | 0.80 | 100 | 1005.1 |
| 20260507151526 | 45 | 240 | 2.6 | 4.3 | 0.10 | 0.79 | 0.79 | 100 | 1004.4 |
| 20260507150010 | 45 | 221 | 0.9 | 4.3 | 0.08 | 0.77 | 0.77 | 100 | 1004.4 |
| 20260507144507 | 45 | 203 | 2.6 | 5.2 | 0.03 | 0.72 | 0.72 | 100 | 1005.0 |
| 20260507143005 | 46 | 236 | 3.5 | 7.0 | 0.04 | 0.70 | 0.70 | 100 | 1004.8 |
| 20260507141504 | 46 | 148 | 1.7 | 2.6 | 0.07 | 0.69 | 0.69 | 100 | 1004.5 |
| 20260507140011 | 46 | 148 | 0.9 | 4.3 | 0.10 | 0.68 | 0.68 | 100 | 1004.3 |
| 20260507134510 | 46 | 148 | 0.9 | 2.6 | 0.15 | 0.68 | 0.68 | 100 | 1004.4 |
| 20260507133010 | 45 | 124 | 3.5 | 7.0 | 0.18 | 0.65 | 0.65 | 100 | 1004.6 |
| 20260507131504 | 46 | 192 | 2.6 | 5.2 | 0.22 | 0.61 | 0.61 | 100 | 1005.5 |
| 20260507130005 | 46 | 147 | 0.0 | 6.1 | 0.26 | 0.58 | 0.58 | 100 | 1005.0 |
| 20260507124514 | 45 | 157 | 3.5 | 8.7 | 0.27 | 0.52 | 0.52 | 100 | 1005.6 |
| 20260507123021 | 45 | 188 | 6.1 | 10.4 | 0.21 | 0.46 | 0.46 | 100 | 1005.7 |
| 20260507121512 | 45 | 191 | 5.2 | 8.7 | 0.14 | 0.39 | 0.39 | 100 | 1005.5 |
| 20260507120005 | 45 | 172 | 7.0 | 13.0 | 0.06 | 0.31 | 0.31 | 100 | 1006.4 |
| 20260507114507 | 46 | 180 | 8.7 | 15.6 | 0.00 | 0.25 | 0.25 | 100 | 1006.0 |
| 20260507113008 | 47 | 153 | 7.8 | 14.8 | 0.00 | 0.25 | 0.25 | 100 | 1005.5 |
| 20260507111514 | 47 | 161 | 7.8 | 16.5 | 0.00 | 0.25 | 0.25 | 100 | 1005.2 |
| 20260507110017 | 47 | 173 | 8.7 | 20.0 | 0.00 | 0.25 | 0.25 | 100 | 1005.6 |
| 20260507104524 | 47 | 169 | 8.7 | 16.5 | 0.00 | 0.25 | 0.25 | 100 | 1005.3 |
| 20260507103008 | 47 | 194 | 10.4 | 19.1 | 0.00 | 0.25 | 0.25 | 100 | 1005.9 |
| 20260507101511 | 47 | 194 | 9.6 | 19.1 | 0.00 | 0.25 | 0.25 | 100 | 1006.0 |
| 20260507100026 | 48 | 155 | 8.7 | 22.6 | 0.00 | 0.25 | 0.25 | 100 | 1006.0 |
| 20260507094520 | 48 | 155 | 11.3 | 19.1 | 0.00 | 0.25 | 0.25 | 100 | 1005.5 |
| 20260507093025 | 48 | 153 | 7.0 | 20.9 | 0.00 | 0.25 | 0.25 | 100 | 1005.2 |
| 20260507091521 | 48 | 165 | 8.7 | 20.9 | 0.00 | 0.25 | 0.25 | 100 | 1005.6 |
| 20260507090017 | 48 | 153 | 10.4 | 16.5 | 0.00 | 0.25 | 0.25 | 100 | 1005.7 |
| 20260507084515 | 49 | 169 | 12.2 | 29.5 | 0.00 | 0.25 | 0.25 | 100 | 1005.8 |
| 20260507083022 | 49 | 151 | 12.2 | 25.2 | 0.00 | 0.25 | 0.25 | 100 | 1005.6 |
| 20260507081531 | 49 | 185 | 14.8 | 28.7 | 0.00 | 0.25 | 0.25 | 99 | 1005.9 |
| 20260507080009 | 50 | 171 | 11.3 | 26.9 | 0.00 | 0.25 | 0.25 | 99 | 1005.8 |
| 20260507074513 | 50 | 160 | 8.7 | 25.2 | 0.01 | 0.25 | 0.25 | 99 | 1005.9 |
| 20260507073018 | 50 | 178 | 12.2 | 24.3 | 0.02 | 0.25 | 0.25 | 99 | 1006.1 |
| 20260507071523 | 51 | 186 | 14.8 | 31.3 | 0.04 | 0.25 | 0.25 | 99 | 1006.1 |
| 20260507070022 | 52 | 180 | 14.8 | 26.9 | 0.07 | 0.24 | 0.24 | 99 | 1006.1 |
| 20260507064526 | 52 | 159 | 14.8 | 26.9 | 0.07 | 0.23 | 0.23 | 98 | 1006.1 |
| 20260507063014 | 53 | 162 | 14.8 | 29.5 | 0.08 | 0.22 | 0.22 | 98 | 1006.3 |
| 20260507061529 | 54 | 167 | 17.4 | 33.9 | 0.08 | 0.20 | 0.20 | 98 | 1006.1 |
| 20260507060003 | 55 | 154 | 18.2 | 35.6 | 0.10 | 0.17 | 0.17 | 98 | 1006.2 |
| 20260507054507 | 56 | 148 | 15.6 | 26.9 | 0.13 | 0.15 | 0.15 | 98 | 1006.7 |
| 20260507053043 | 55 | 123 | 13.9 | 26.9 | 0.13 | 0.14 | 0.14 | 98 | 1006.9 |
| 20260507051517 | 55 | 172 | 16.5 | 28.7 | 0.11 | 0.11 | 0.11 | 97 | 1007.7 |
| 20260507050030 | 56 | 153 | 11.3 | 27.8 | 0.06 | 0.07 | 0.07 | 96 | 1007.7 |
| 20260507044506 | 56 | 142 | 14.8 | 29.5 | 0.02 | 0.02 | 0.02 | 94 | 1008.1 |
| 20260507043006 | 57 | 148 | 13.0 | 25.2 | 0.00 | 0.00 | 0.00 | 95 | 1008.5 |
| 20260507041513 | 57 | 166 | 12.2 | 22.6 | 0.00 | 0.00 | 0.00 | 94 | 1008.7 |
| 20260507040017 | 57 | 155 | 10.4 | 25.2 | 0.00 | 0.00 | 0.00 | 94 | 1009.0 |
| 20260507034503 | 57 | 130 | 11.3 | 26.9 | 0.00 | 0.00 | 0.00 | 94 | 1009.1 |
| 20260507033009 | 57 | 169 | 9.6 | 22.6 | 0.00 | 0.00 | 0.00 | 93 | 1009.3 |
| 20260507031510 | 57 | 129 | 11.3 | 22.6 | 0.00 | 0.00 | 0.00 | 92 | 1009.7 |
| 20260507030016 | 57 | 117 | 12.2 | 26.9 | 0.00 | 0.00 | 0.00 | 91 | 1010.1 |
| 20260507024520 | 57 | 199 | 11.3 | 26.1 | 0.00 | 0.00 | 0.00 | 90 | 1010.7 |
| 20260507023023 | 58 | 146 | 9.6 | 31.3 | 0.00 | 0.00 | 0.00 | 90 | 1011.1 |
| 20260507021506 | 57 | 150 | 11.3 | 25.2 | 0.00 | 0.00 | 0.00 | 90 | 1011.3 |
| 20260507020011 | 57 | 123 | 11.3 | 25.2 | 0.00 | 0.00 | 0.00 | 90 | 1011.5 |
| 20260507014516 | 57 | 144 | 12.2 | 26.1 | 0.00 | 0.00 | 0.00 | 90 | 1011.8 |
| 20260507013021 | 57 | 142 | 13.9 | 24.3 | 0.00 | 0.00 | 0.00 | 90 | 1012.0 |
| 20260507011529 | 56 | 150 | 13.9 | 33.0 | 0.00 | 0.00 | 0.00 | 91 | 1012.3 |
| 20260507010009 | 55 | 157 | 11.3 | 24.3 | 0.00 | 0.00 | 0.00 | 92 | 1012.6 |
| 20260507004515 | 55 | 169 | 12.2 | 28.7 | 0.00 | 0.00 | 0.00 | 91 | 1013.0 |
| 20260507003016 | 56 | 133 | 7.8 | 19.1 | 0.00 | 0.00 | 0.00 | 91 | 1012.9 |
| 20260507001524 | 56 | 105 | 7.8 | 22.6 | 0.00 | 0.00 | 0.00 | 92 | 1012.4 |
| 20260507000027 | 55 | 165 | 10.4 | 25.2 | 0.00 | 0.00 | 0.00 | 92 | 1013.5 |
| 20260506234508 | 54 | 184 | 10.4 | 22.6 | 0.00 | 0.00 | 0.00 | 93 | 1013.7 |
| 20260506233012 | 55 | 168 | 13.0 | 28.7 | 0.00 | 0.00 | 0.00 | 93 | 1013.7 |
| 20260506231518 | 54 | 143 | 12.2 | 24.3 | 0.00 | 0.00 | 0.00 | 92 | 1013.7 |
| 20260506230028 | 54 | 177 | 11.3 | 26.1 | 0.00 | 0.00 | 0.00 | 92 | 1013.9 |
| 20260506224525 | 54 | 160 | 12.2 | 26.1 | 0.00 | 0.00 | 0.00 | 92 | 1013.9 |
| 20260506223008 | 55 | 165 | 14.8 | 24.3 | 0.00 | 0.00 | 0.00 | 92 | 1013.7 |
| 20260506221515 | 55 | 148 | 12.2 | 28.7 | 0.00 | 0.00 | 0.00 | 91 | 1013.8 |
| 20260506220033 | 55 | 142 | 14.8 | 26.9 | 0.00 | 0.00 | 0.00 | 90 | 1014.0 |
| 20260506214523 | 56 | 175 | 13.9 | 28.7 | 0.00 | 0.00 | 0.00 | 90 | 1013.8 |
| 20260506213026 | 56 | 144 | 10.4 | 23.5 | 0.00 | 0.00 | 0.00 | 90 | 1013.9 |
| 20260506211527 | 56 | 140 | 11.3 | 25.2 | 0.00 | 0.00 | 0.00 | 90 | 1014.0 |
| 20260506210020 | 56 | 161 | 11.3 | 31.3 | 0.00 | 0.00 | 0.00 | 88 | 1014.2 |
| 20260506204504 | 56 | 169 | 12.2 | 29.5 | 0.00 | 0.00 | 0.00 | 89 | 1014.4 |
| 20260506203003 | 57 | 134 | 15.6 | 36.5 | 0.00 | 0.00 | 0.00 | 88 | 1014.2 |